Regional Weather Roundup
Issued by NWS Charleston, SC

Current Version | Previous Version | Text Only | Print | Product List | Glossary Off
Versions: 1 2 3 4 5 6 7 8 9 10 11 12 13 14 15 16 17 18 19 20 21 22 23 24 25 26 27 28 29 30 31 32 33 34 35 36 37 38 39 40 41 42 43 44 45 46 47 48 49 50

000
ASUS42 KCHS 252010
RWRCHS

REGIONAL WEATHER ROUNDUP
NATIONAL WEATHER SERVICE CHARLESTON SC
400 PM EDT FRI JUL 25 2014

NOTE: "FAIR" INDICATES FEW OR NO CLOUDS BELOW 12,000 FEET WITH NO
SIGNIFICANT WEATHER AND/OR OBSTRUCTIONS TO VISIBILITY.

NOT ALL STATIONS ARE QUALITY CONTROLLED BY THE NATIONAL
WEATHER SERVICE. USE DATA WITH CAUTION...ESPECIALLY
DEWPOINT OBSERVATIONS.

SCZ027-030-031-034>040-042>050-252100-
...SOUTH CAROLINA...

CITY           SKY/WX    TMP DP  RH WIND       PRES   REMARKS
N CHARLESTON   TSTM      75  72  88 SE7       30.00R
WATERFRONT PRK   N/A     75 N/A N/A S9G15       N/A
FORT JOHNSON   NOT AVBL
MOUNT PLEASANT RAIN      72  72 100 CALM      30.01F
JOHNS ISLAND   TSTM      72  70  94 CALM      30.03R VSB 1/4
PINOPOLIS        N/A     79  73  83 S2        29.92R
MONCKS CORNER    N/A     75  75 100 CALM      29.98S THUNDER
SUMMERVILLE    MOCLDY    75  75 100 SE6       30.00S THUNDER
BEAUFORT MCAS  PTSUNNY   83  75  77 NE7       29.95S THUNDER HX  90
BEAUFORT ARPT  FAIR      90  77  66 S8G17     29.94F THUNDER HX 102
HILTON HEAD IS MOSUNNY   88  73  62 S10G22    29.97F HX  96
GEORGETOWN     NOT AVBL
WALTERBORO     MOCLDY    84  77  79 SE6       29.97S HX  94
ORANGEBURG     MOSUNNY   85  75  72 E6        29.96F HX  93
BARNWELL       FAIR      91  70  49 SW10      29.95F HX  97
AIKEN          MOCLDY    88  73  62 CALM      29.99F HX  96
MANNING        MOCLDY    81  81 100 CALM      29.99R THUNDER HX  91
KINGSTREE      NOT AVBL
COLUMBIA       PTSUNNY   90  70  51 N7        29.95F HX  95
SUMTER         PTSUNNY   84  75  74 NE8       29.97S HX  93
FLORENCE       CLOUDY    83  72  69 E8        30.00R
MYRTLE BEACH   PTSUNNY   79  73  83 E8        30.01F FOG
N MYRTLE BEACH CLOUDY    81  74  79 SE6       30.00F HAZE

$$

GAZ063-065-086>088-099>101-113>116-118-119-134-136>141-150-252100-
...GEORGIA...

CITY           SKY/WX    TMP DP  RH WIND       PRES   REMARKS
SAVANNAH ARPT  PTSUNNY   94  70  45 W10       29.95F HX 100
HUNTER AAF     MOSUNNY   94  73  49 S9        29.94F HX 102
FORT STEWART   PTSUNNY   92  71  50 S7        29.95F HX  99
STATESBORO     NOT AVBL
SYLVANIA       PTCLDY    91  77  63 SW7       29.96F HX 104
CLAXTON        MOCLDY    93  73  52 SW7       29.95F HX 102
THOMSON        MOSUNNY   91  77  65 CALM      30.00F HX 104
AUGUSTA-BUSH   PTSUNNY   90  71  53 SE5       29.94F HX  96
AUGUSTA-DANIEL MOSUNNY   92  70  48 W8        29.96F HX  97
SWAINSBORO     MOCLDY    93  73  52 N3        29.96F HX 102
VIDALIA          N/A     91  72  52 SW8       29.96F HX  98
ALMA           MOSUNNY   94  67  41 SW13G20   29.97F HX  97
WAYCROSS       MOSUNNY   96  73  45 W8        29.97F HX 105
JESUP          NOT AVBL
BRUNSWICK      MOSUNNY   95  68  41 S10       29.97F HX  99
SAINT SIMONS   MOSUNNY   92  70  48 SW10      29.97F HX  97

$$

SCZ027-028-034-036>038-045-046-048>050-GAZ119-141-252100-
...LAKE AND SUPPLEMENTAL COASTAL OBSERVATIONS...

STATION/POSITION TIME  TEMP    WIND        PRES    WAVE   SWELL
                       AIR SEA DIR/SP/G            HT/PER HT/PER/DIR
                 (UTC) (F)     (DEG/KT/KT) (MB)    (FT/S) (FT/S/D)
UPR LAKE MARION  NOT AVBL
WINYAH BAY       1900   74      10/  6     1016.0S
LAKE MURRAY      1900   85      CALM  /  3 1014.6F
ACE BASIN NERRS  1900   91     190/  2     1015.0F
FORT PULASKI     2000   89     180/  7/ 14 1014.5S
SAPELO ISLAND    1900   93     230/  9     1017.0S

$$

ANZ835-935-AMZ111-154-330-350-352-354-374-450-454-472-252100-
...C-MAN AND BUOY OBSERVATIONS...

STATION/POSITION TIME  TEMP    WIND        PRES    WAVE   SWELL
                       AIR SEA DIR/SP/G            HT/PER HT/PER/DIR
                 (UTC) (F)     (DEG/KT/KT) (MB)    (FT/S) (FT/S/D)
FOLLY BEACH CMAN 1900   84     190/ 14/ 15 1015.9S
BUOY 41004       2000   83 83  210/ 12/ 16 1015.1F   3/ 5   2/ 7
BUOY 41008       2000   84 85  170/ 16/ 17 1015.1F   2/ 4
5E ST. MARYS GA  2000      86                N/A     2/ 7
FRYING PAN BUOY  NOT AVBL
BUOY 41025       2000          VRB  6/  8  1016.3F   2/ 6   2/160/ 6
CAPE LOOKOUT NC  1900   77      90/ 10/ 11 1016.9F
BUOY 41002       1900   80 82  270/  8/ 10 1018.2F   4/ 8   3/230/ 8
BUOY 41010       2000   84 85  200/  8/ 10 1018.2F   2/ 7   2/140/ 7
BUOY 41012       NOT AVBL
ST AUGUSTINE FL  2000   80     150/  6/  7 1017.7F
CAPERS NEARSHORE 1900   84     200/ 16/ 17   N/A
FRIPP NEARSHORE  NOT AVBL


$$



USA.gov is the U.S. government's official web portal to all federal, state and local government web resources and services.